Regional Weather Roundup
Issued by NWS

Home | Current Version | Previous Version | Graphics & Text | Print | Product List | Glossary On
Versions: 1 2 3 4 5 6 7 8 9 10 11 12 13 14 15 16 17 18 19 20 21 22 23 24 25 26 27 28 29 30 31 32 33 34 35 36 37 38 39 40 41 42 43 44 45 46 47 48 49 50
000
ASUS43 KMPX 040410
RWRMN
WEATHER ROUNDUP FOR MINNESOTA
NATIONAL WEATHER SERVICE TWIN CITIES/CHANHASSEN MN
1100 PM CDT TUE MAY 03 2016


NOTE: "FAIR" INDICATES FEW OR NO CLOUDS BELOW 12,000 FEET WITH NO
SIGNIFICANT WEATHER AND/OR OBSTRUCTIONS TO VISIBILITY. N/A MEANS
CURRENT SKY AND/OR WEATHER CONDITIONS ARE NOT AVAILABLE.

MNZ060>063-068>070-040500-
   Twin Cities Metro

CITY           SKY/WX    TMP DP  RH WIND       PRES   REMARKS
TWIN CITIES    CLEAR     60  28  29 N14       29.78R
ST PAUL        CLEAR     58  30  34 N12       29.78R
CRYSTAL        CLEAR     59  29  31 N9        29.78R
BLAINE         CLEAR     55  30  38 N8        29.79R
EDEN PRAIRIE   CLEAR     59  26  28 N12       29.77R
SOUTH ST PAUL  CLEAR     59  28  30 N10       29.77R
LAKE ELMO      FAIR      55  32  41 N8        29.78R
$$
MNZ001>005-007-008-013>017-022>024-027-028-040500-
   Northwest Minnesota

CITY           SKY/WX    TMP DP  RH WIND       PRES   REMARKS
BEMIDJI        CLEAR     50  33  52 N7        29.93R
HALLOCK        CLEAR     46  30  53 N8        30.01R
ROSEAU         CLEAR     48  37  66 N10       29.98R
WARROAD        CLEAR     46  37  71 NW8       29.98R
THIEF RVR FALL CLEAR     48  34  57 NW12      29.99R
CROOKSTON      CLEAR     50  32  50 N14       29.99R
FOSSTON        CLEAR     45  30  57 NW9       29.97R
DETROIT LAKES  CLEAR     52  34  50 N10       29.95R
MOORHEAD       CLEAR     52  27  37 N14       29.97R
PARK RAPIDS    CLEAR     54  31  41 N13       29.91R
MAHNOMEN       FAIR      50  34  54 N13       29.95R
$$
MNZ006-009>011-018-025>026-040500-
   North Central Minnesota

CITY           SKY/WX    TMP DP  RH WIND       PRES   REMARKS
BAUDETTE       CLEAR     46  33  60 N7        29.95R
FLAG ISLAND    CLEAR     52  36  54 N9        29.96R
INTL FALLS     CLEAR     35  31  85 CALM      29.93R
WASKISH        CLEAR     46  36  66 N6        29.94S
BIG FORK       CLEAR     46  30  53 N5        29.92R
LONGVILLE      CLEAR     52  34  50 N7        29.90R
GRAND RAPIDS   CLEAR     50  28  43 N10       29.91R
CRANE LAKE     CLEAR     45  30  57 NW5       29.92R
ORR            CLEAR     41  28  60 CALM      29.89R
COOK           CLEAR     45  30  57 CALM      29.90R
WALKER         FAIR      50  33  52 N7        29.91R
$$
MNZ012-019>021-037-040500-
   Northeast Minnesota

CITY           SKY/WX    TMP DP  RH WIND       PRES   REMARKS
DULUTH         CLEAR     49  31  49 N14       29.85R
ELY            CLEAR     45  30  57 N3        29.87S
HIBBING        CLEAR     45  30  55 N8        29.89R
EVELETH        CLEAR     46  30  53 N7        29.89R
DULUTH HARBOR  CLEAR     46  37  71 N16       29.86R
TWO HARBORS    CLEAR     52  36  54 N5        29.84R
SILVER BAY     CLEAR     48  30  49 N6        29.83R
GRAND MARAIS     N/A     45  33  63 VRB3      29.82R
G MARAIS ARPRT CLEAR     39  28  65 NW7       29.81S
$$
MNZ029>031-032-039>041-046>048-054>057-064-040500-
   West Central Minnesota

CITY           SKY/WX    TMP DP  RH WIND       PRES   REMARKS
FERGUS FALLS   CLEAR     54  30  40 N12G17    29.91R
WHEATON        CLEAR     54  30  40 NW10      29.95R
MORRIS         CLEAR     54  28  37 N14       29.89R
ALEXANDRIA     CLEAR     54  30  40 N14       29.90R
ELBOW LAKE     FAIR      54  33  45 NW10      29.92R
WADENA         CLEAR     50  30  46 N7        29.90R
GLENWOOD       CLEAR     52  28  40 N9        29.89R
APPLETON       CLEAR     55  27  33 N14       29.89R
BENSON         CLEAR     52  27  37 N7        29.89R
ORTONVILLE     CLEAR     54  27  35 N14       29.91R
MADISON        CLEAR     55  25  30 N13       29.90R
WILLMAR        FAIR      55  30  38 N9        29.88R
$$
MNZ033>034-036-042>043-049>051-058-059-040500-
   Central Minnesota

CITY           SKY/WX    TMP DP  RH WIND       PRES   REMARKS
ST CLOUD       PTCLDY    54  29  38 N8        29.83R
SAUK CENTRE    FAIR      51  31  45 N7        29.88R
PAYNESVILLE    CLEAR     53  27  36 N7        29.86R
AITKIN         CLEAR     54  28  37 N7        29.86R
PINE RIVER     CLEAR     54  36  50 N10       29.92R
BRAINERD       CLEAR     55  32  41 N15       29.87
STAPLES        CLEAR     52  28  40 N10       29.89R
LONG PRAIRIE   FAIR      50  30  46 NW7       29.89R
LITTLE FALLS   CLEAR     54  30  40 NW5       29.86R
LITCHFIELD     CLEAR     55  27  33 N12       29.85R
BUFFALO        PTCLDY    57  27  32 NW10G17   29.82R
MAPLE LAKE     PTCLDY    57  32  38 N13G21    29.83R
HUTCHINSON     CLEAR     56  31  37 N14G20    29.84R
$$
MNZ037-044-045-052-053-040500-
   East Central Minnesota

CITY           SKY/WX    TMP DP  RH WIND       PRES   REMARKS
PRINCETON      PTCLDY    54  30  40 N7        29.83R
MORA           CLEAR     54  30  40 N3        29.85R
CAMBRIDGE      PTCLDY    59  37  44 N9        29.80R
RUSH CITY      MOCLDY    54  32  43 N9        29.81R
MOOSE LAKE     CLEAR     52  32  46 N13G23    29.84R
HINCKLEY       CLOUDY    54  34  47 N9        29.83R
CLOQUET        CLEAR     52  28  40 N10G17    29.86R
MCGREGOR       CLEAR     52  34  50 N10G20    29.87R
$$
MNZ071>073-080-081-089-090-097-098-040500-
   Southwest Minnesota

CITY           SKY/WX    TMP DP  RH WIND       PRES   REMARKS
MONTEVIDEO     CLEAR     54  28  37 N13       29.89R
GRANITE FALLS  CLEAR     57  32  37 NW10      29.88R
CANBY          CLEAR     57  31  37 NW9       29.91R
MARSHALL       CLEAR     55  29  36 N14       29.88R
REDWOOD FALLS  CLEAR     58  26  29 N12G21    29.84R
OLIVIA         CLEAR     54  28  37 N10G16    29.85R
PIPESTONE      CLEAR     55  27  33 N12G18    29.89R
WINDOM         CLEAR     55  28  35 NW13      29.84R
WORTHINGTON    CLEAR     51  36  56 NW15      29.86R
JACKSON        CLEAR     55  28  35 NW16G24   29.83R
TRACY          CLEAR     56  31  39 N12       29.87R
SLAYTON        CLEAR     54  31  41 NW14      29.88R
$$
MNZ065>067-074>077-082>085-091>093-040500-
   South Central Minnesota

CITY           SKY/WX    TMP DP  RH WIND       PRES   REMARKS
MANKATO        CLEAR     57  27  30 N16       29.78R
NEW ULM        CLEAR     57  28  33 N12G17    29.81R
ST JAMES       CLEAR     52  27  37 NW12      29.82R
FAIRMONT       CLEAR     57  28  33 NW16      29.79R
GLENCOE        CLEAR     56  32  39 N10       29.80R
OWATONNA       CLEAR     55  28  35 N12       29.76R
WASECA         CLEAR     55  30  38 N16       29.77R
ALBERT LEA     CLEAR     57  30  35 N7        29.75R
$$
MNZ078>079-086>088-094>096-040500-
   Southeast Minnesota

CITY           SKY/WX    TMP DP  RH WIND       PRES   REMARKS
ROCHESTER      CLEAR     55  40  56 N14       29.73R
RED WING       CLEAR     59  28  31 N6        29.74R
STANTON        CLEAR     58  28  30 N14       29.75R
DODGE CENTER   PTCLDY    54  30  40 N12       29.74R
WINONA         CLEAR     55  43  62 NE7       29.72R
AUSTIN         CLEAR     55  34  44 N9G16     29.72R
PRESTON        MOCLDY    55  42  61 N10       29.71R
$$
ABBREVIATIONS USED IN REMARKS
   TC - TEMPERATURES IN CELSIUS
  WCI - WIND CHILL INDEX
   HX - HEAT INDEX
  VSB - VISIBILITY
$$



USA.gov is the U.S. government's official web portal to all federal, state and local government web resources and services.